Location: Unspecified
(0.0000°N, 0.0000°E)
Time: 03:17:26
(UTC+02:00)

HO-68 - Visible Passes

Search period start: 27 May 2018 00:00
Search period end: 06 June 2018 00:00
Orbit: 1193 x 1204 km, 100.1° (Epoch: 26 May)

Date Brightness Start Highest point End Pass type
(mag) Time Alt. Az. Time Alt. Az. Time Alt. Az.
27 May ? 07:20:09 10° ENE 07:25:25 22° ESE 07:30:40 10° SSE visible
27 May ? 20:57:37 10° S 21:04:27 47° WSW 21:11:17 10° NNW visible
28 May ? 07:04:51 10° ENE 07:08:35 15° ESE 07:12:17 10° SE visible
28 May ? 20:40:26 10° S 20:47:35 67° WSW 20:54:41 10° NNW visible
29 May ? 20:23:29 10° SSE 20:30:42 88° ENE 20:37:54 10° NNW visible
30 May ? 21:58:09 10° SW 22:01:10 13° WSW 22:04:11 10° W visible
31 May ? 21:39:26 10° SSW 21:44:21 20° WSW 21:49:15 10° WNW visible
01 Jun ? 21:21:31 10° SSW 21:27:30 29° WSW 21:33:29 10° NW visible
02 Jun ? 07:25:54 10° NE 07:31:36 26° ESE 07:37:17 10° SSE visible
02 Jun ? 21:03:59 10° S 21:10:38 41° WSW 21:17:16 10° NW visible
03 Jun ? 07:10:16 10° ENE 07:14:45 18° ESE 07:19:14 10° SE visible
03 Jun ? 20:46:44 10° S 20:53:47 58° WSW 21:00:48 10° NNW visible
04 Jun ? 06:55:53 10° E 06:57:56 11° ESE 06:59:58 10° ESE visible
04 Jun ? 20:29:42 10° S 20:36:55 81° WSW 20:44:06 10° NNW visible
05 Jun ? 20:12:51 10° SSE 20:20:02 73° ENE 20:27:11 10° N visible
05 Jun ? 22:06:02 10° WSW 22:07:21 11° WSW 22:08:39 10° W visible
